{"data":{"norad_id":65645,"intl_designator":"2025-210Z","name":"STARLINK-35237","alt_names":[],"object_type":"PAYLOAD","status":"ACTIVE","operator":null,"country":"US","launch_date":"2025-09-18","launch_site_code":"AFETR","launch_vehicle":null,"mission":null,"orbit_class":"UNKNOWN","rcs_meters":null,"size_class":null,"mass_kg":null,"dimensions":null,"purposes":["comms"],"wikipedia_slug":null,"has_3d_model":false,"image_url":null,"decayed_at":null,"tle_current":{"epoch":"2026-05-25T03:43:14.833056Z","epoch_age_seconds":58053,"freshness":"FRESH","line1":"1 65645U 25210Z   26145.15503279  .00019463  00000+0  66743-3 0  9997","line2":"2 65645  53.1600 312.2316 0001118 111.8486 248.2634 15.30204112 39438","mean_motion":15.30204112,"eccentricity":0.0001118,"inclination_deg":53.16,"raan_deg":312.2316,"arg_perigee_deg":111.8486,"mean_anomaly_deg":248.2634,"bstar":0.00066743,"rev_number":3943,"period_min":94.105092824375,"perigee_km":474.43658836729,"apogee_km":475.96899514473,"semimajor_km":6853.339791756,"source":"CELESTRAK","updated_at":"2026-05-25T13:38:20.886124Z"}}}